Regional Weather Roundup
Issued by NWS

Home | Current Version | Previous Version | Text Only | Print | Product List | Glossary Off
Versions: 1 2 3 4 5 6 7 8 9 10 11 12 13 14 15 16 17 18 19 20 21 22 23 24 25 26 27 28 29 30 31 32 33 34 35 36 37 38 39 40 41 42 43 44 45 46 47 48 49 50

000
ASUS43 KDMX 081501
RWRIA

WEATHER ROUNDUP FOR IOWA
NATIONAL WEATHER SERVICE DES MOINES IA
900 AM CST THU DEC 08 2016

NOTE: "FAIR" INDICATES FEW OR NO CLOUDS BELOW 12,000 FEET WITH NO
SIGNIFICANT WEATHER AND/OR OBSTRUCTIONS TO VISIBILITY.

* - THESE STATIONS ARE NOT NWS STATIONS...THUS NOT UNDER NWS
QUALITY CONTROL.  THEY ALSO DO NOT REPORT WEATHER SUCH
AS PRECIPITATION OR FOG.

IAZ001>003-012>014-020>022-031>034-043>046-081600-
   NORTHWEST IOWA

CITY           SKY/WX    TMP DP  RH WIND       PRES   REMARKS
CARROLL *      SUNNY     12   5  73 NW24G32   30.49R WCI  -8
CHEROKEE *     MOSUNNY   11   5  76 NW13G18   30.52R WCI  -4
DENISON *      PTSUNNY   10   5  79 NW13G22   30.52R WCI  -5
LE MARS *      MOSUNNY   10   5  79 NW22G29   30.56R WCI  -9
ORANGE CITY *  SUNNY      9   5  85 NW22G30   30.50R WCI -11
SHELDON *      MOSUNNY   10   5  79 NW23G32   30.47R WCI -10
SIOUX CITY     MOSUNNY   13   3  64 NW21G30   30.56R WCI  -5
SPENCER        SUNNY     11   5  77 W28G36    30.45R WCI -10
STORM LAKE *   SUNNY     10   5  79 NW25      30.46R WCI -10
$$

IAZ055>058-069>071-079>083-090>094-081600-
   SOUTHWEST IOWA

CITY           SKY/WX    TMP DP  RH WIND       PRES   REMARKS
ATLANTIC *     PTSUNNY   12   5  73 NW16G25   30.55R WCI  -4
AUDUBON *      SUNNY     12   5  73 NW12G21   30.51R WCI  -2
CLARINDA *     MOSUNNY   14   7  73 NW14G30   30.60R WCI  -1
COUNCIL BLFS * SUNNY     12   5  73 NW15G26   30.56R WCI  -4
CRESTON *      PTSUNNY   12   5  73 NW25      30.52R WCI  -8
HARLAN  *      MOSUNNY   12   5  73 NW21      30.58R WCI  -6
LAMONI         PTSUNNY   13   6  74 NW21G29   30.51R WCI  -5
RED OAK *      PTSUNNY   12   5  73 NW18G24   30.58R WCI  -5
SHENANDOAH *   MOSUNNY   14   5  67 NW14      30.61R WCI  -1
$$

IAZ047>049-059>061-072>074-084-081600-
   CENTRAL IOWA

CITY           SKY/WX    TMP DP  RH WIND       PRES   REMARKS
AMES           SUNNY     13   7  77 NW20      30.46R WCI  -5
ANKENY *       CLOUDY    14   5  67 NW21G29   30.49R WCI  -4
BOONE *        MOSUNNY   12   5  73 NW21G31   30.44R WCI  -6
CHARITON *     MOSUNNY   14   5  67 W21G26    30.48R WCI  -4
DES MOINES     MOSUNNY   14   4  64 NW23G29   30.48R WCI  -5
GRINNELL*      CLOUDY    13   8  79 W21G28    30.42R WCI  -5
KNOXVILLE *    MOSUNNY   14   3  62 NW22G29   30.46R WCI  -4
MARSHALLTOWN   CLOUDY    15   8  73 W22       30.42R WCI  -3
NEWTON *       CLOUDY    14   7  73 NW15G23   30.45R WCI  -1
PELLA *        SUNNY     15   6  69 NW21G26   30.48R WCI  -3
PERRY *          N/A     13   7  79 W18G29    30.49R WCI  -5
$$

IAZ004>006-015-016-023>025-035-036-081600-
   NORTH CENTRAL IOWA

CITY           SKY/WX    TMP DP  RH WIND       PRES   REMARKS
ALGONA *       FLURRIES  14   9  79 NW21      30.41R WCI  -4
CLARION *      CLOUDY    14   9  79 NW21G28   30.42R WCI  -4
ESTHERVILLE    SUNNY     12   7  80 NW22      30.42R WCI  -7
FORT DODGE *   SUNNY     12   5  73 W16G25    30.45R WCI  -4
MASON CITY     FLURRIES  16  10  77 NW24      30.37R WCI  -2
WEBSTER CITY * FLURRIES  14   7  73 W23G31    30.42R WCI  -5
IOWA FALLS *   FLURRIES  15  10  79 W22G29    30.41R WCI  -3
$$

IAZ007>011-017>019-026>030-037>042-050>054-066-081600-
   NORTHEAST IOWA

CITY           SKY/WX    TMP DP  RH WIND       PRES   REMARKS
CEDAR RAPIDS   CLOUDY    14  10  84 W23       30.38R WCI  -5
CHARLES CITY * FLURRIES  16  12  86 NW18      30.34R WCI  -1
CLINTON *      FLURRIES  15  10  80 W22       30.35R WCI  -3
DECORAH *      FLURRIES  16  12  86 NW10G22   30.28R WCI   3
DUBUQUE        CLOUDY    13   8  81 W14       30.30R WCI  -2
MONTICELLO *   CLOUDY    16   9  73 W16G24    30.35R WCI   0
OELWEIN *      FLURRIES  16  12  86 NW17      30.34R WCI   0
WATERLOO       CLOUDY    17   9  70 W13G20    30.37R WCI   4
$$

IAZ064-065-067-068-078-081600-
   EAST CENTRAL IOWA

CITY           SKY/WX    TMP DP  RH WIND       PRES   REMARKS
DAVENPORT      PTSUNNY   15   8  73 W22G33    30.37R WCI  -3
IOWA CITY      CLOUDY    15   7  70 W14G21    30.43R WCI   0
MUSCATINE *    CLOUDY    18   7  62 W18G28    30.44R WCI   2
QUAD CITIES    PTSUNNY   17   7  64 W16G31    30.38R WCI   2
$$

IAZ062-063-075>077-085>089-095>099-081600-
   SOUTHEAST IOWA

CITY           SKY/WX    TMP DP  RH WIND       PRES   REMARKS
BURLINGTON     CLOUDY    16   8  71 NW13G26   30.44R WCI   2
FAIRFIELD *    PTSUNNY   16   5  62 W22G28    30.44R WCI  -2
FORT MADISON * PTSUNNY   16   9  73 W16G25    30.46R WCI   0
KEOKUK *       CLOUDY    18  10  73 W15       30.46R WCI   3
OSKALOOSA *      N/A     14   8  74 NW22      30.46R WCI  -4
CENTERVILLE *    N/A     16   7  67 W18       30.49R WCI  -1
OTTUMWA        MOSUNNY   15   5  64 W17       30.46R WCI  -1
WASHINGTON *   PTSUNNY   16   9  73 W21G31    30.45R WCI  -2
$$

ABBREVIATIONS USED IN REMARKS
   TC - TEMPERATURES IN CELSIUS
  WCI - WIND CHILL INDEX
   HX - HEAT INDEX
  VSB - VISIBILITY
$$





USA.gov is the U.S. government's official web portal to all federal, state and local government web resources and services.